"startDT [UTC]","vpos","CH4 [ppm]","stdev(CH4) [ppm]","CO2 [ppm]","stdev(CO2) [ppm]","H2O [ppm]","stdev(H2O)","p_LGR [torr]","T_LGR [C]","mt1_LGR [us]","mt2_LGR [us]","T_ECpre [C]","T_EC1 [C]","T_EC2 [C]","p_inlet [hPa]","p_in [hPa]","p_out [hPa]","T_inlet [C]","RH_inlet [%]","dwpt_inlet [C]","T_vent [C]","RH_vent [%]","dwpt_vent [C]","flow_vent [l min-1]","flow_inlet [l min-1]","dwpt_sample [C]","T_room [C]"
2012-01-14 00:00:00,1.0,1.9004,0.0271,387.65,10.70,-1.0,0.0,138.23,23.81,24.57,36.25,0.04,-272.74,-272.74,-43,548,-939,18.5,0.8,-41.3,18.6,0.8,-41.0,5.73,2.46,-36.5,23.5
2012-01-14 00:01:00,1.0,1.8697,0.0009,375.56,0.18,-1.0,0.0,138.22,23.81,24.58,36.26,0.04,-272.74,-272.74,-43,546,-939,18.5,0.8,-41.2,18.6,0.8,-40.9,5.73,2.50,-36.5,23.5
2012-01-14 00:02:00,1.0,1.8697,0.0008,375.70,0.19,-1.0,0.0,138.23,23.81,24.58,36.25,0.04,-272.74,-272.74,-43,546,-939,18.5,0.8,-41.3,18.5,0.8,-40.6,5.73,2.51,-36.5,23.5
2012-01-14 00:03:00,1.0,1.8697,0.0008,375.60,0.19,-1.0,0.0,138.22,23.81,24.58,36.26,0.04,-272.74,-272.74,-43,547,-939,18.5,0.8,-41.2,18.5,0.8,-40.6,5.73,2.50,-36.5,23.5
2012-01-14 00:04:00,1.0,1.8696,0.0008,375.69,0.17,-1.0,0.0,138.23,23.80,24.58,36.25,0.04,-272.74,-272.74,-43,547,-939,18.5,0.8,-41.3,18.5,0.8,-40.6,5.73,2.47,-36.5,23.5
2012-01-14 00:05:00,0.0,1.9104,0.0283,392.03,11.37,-1.0,0.0,138.23,23.80,24.58,36.25,0.04,-272.74,-272.74,-44,539,-939,18.5,0.8,-41.2,18.6,0.8,-40.6,5.73,2.50,-36.5,23.5
2012-01-14 00:06:00,0.0,1.9414,0.0010,405.18,0.16,-1.0,0.0,138.23,23.80,24.58,36.24,0.04,-272.73,-272.74,-43,540,-939,18.5,0.8,-41.3,18.6,0.8,-40.8,5.73,2.45,-36.5,23.5
2012-01-14 00:07:00,0.0,1.9416,0.0008,405.01,0.32,-1.0,0.0,138.23,23.79,24.58,36.24,0.04,-272.74,-272.74,-43,540,-939,18.5,0.8,-41.4,18.6,0.8,-40.9,5.73,2.45,-36.6,23.5
2012-01-14 00:08:00,0.0,1.9417,0.0008,404.80,0.20,-1.0,0.0,138.23,23.79,24.58,36.24,0.04,-272.74,-272.74,-44,540,-939,18.5,0.7,-41.5,18.6,0.8,-40.9,5.73,2.47,-36.6,23.5
2012-01-14 00:09:00,0.0,1.9415,0.0009,404.34,0.31,-1.0,0.0,138.22,23.79,24.57,36.25,0.04,-272.73,-272.74,-44,540,-939,18.5,0.7,-41.6,18.6,0.8,-40.9,5.73,2.49,-36.6,23.5
2012-01-14 00:10:00,0.0,1.9404,0.0009,403.73,0.24,-1.0,0.0,138.23,23.79,24.57,36.24,0.04,-272.74,-272.74,-44,540,-939,18.5,0.7,-41.6,18.6,0.8,-40.9,5.73,2.51,-36.6,23.5
2012-01-14 00:11:00,0.0,1.9398,0.0011,403.51,0.19,-1.0,0.0,138.23,23.79,24.58,36.25,0.04,-272.74,-272.74,-44,540,-939,18.5,0.7,-41.5,18.6,0.8,-40.9,5.73,2.51,-36.6,23.5
2012-01-14 00:12:00,0.0,1.9415,0.0010,403.75,0.18,-1.0,0.0,138.22,23.79,24.57,36.25,0.04,-272.74,-272.74,-44,540,-939,18.5,0.8,-41.3,18.6,0.8,-40.9,5.73,2.49,-36.6,23.5
2012-01-14 00:13:00,0.0,1.9423,0.0008,403.59,0.19,-1.0,0.0,138.23,23.79,24.58,36.25,0.04,-272.74,-272.74,-44,540,-939,18.5,0.8,-41.3,18.5,0.8,-41.0,5.73,2.47,-36.6,23.5
2012-01-14 00:14:00,0.0,1.9424,0.0010,403.54,0.21,-1.0,0.0,138.22,23.79,24.57,36.24,0.04,-272.74,-272.74,-44,540,-939,18.5,0.7,-41.6,18.6,0.8,-40.9,5.73,2.45,-36.6,23.5
2012-01-14 00:15:00,0.0,1.9426,0.0011,403.81,0.18,-1.0,0.0,138.23,23.78,24.57,36.24,0.04,-272.74,-272.74,-44,540,-939,18.5,0.7,-41.6,18.6,0.8,-41.0,5.73,2.44,-36.6,23.5
2012-01-14 00:16:00,0.0,1.9423,0.0010,403.55,0.17,-1.0,0.0,138.23,23.78,24.57,36.24,0.04,-272.74,-272.74,-44,540,-939,18.5,0.7,-41.6,18.6,0.8,-41.0,5.73,2.46,-36.6,23.5
2012-01-14 00:17:00,0.0,1.9421,0.0009,403.51,0.31,-1.0,0.0,138.23,23.78,24.58,36.24,0.04,-272.74,-272.74,-44,540,-939,18.5,0.7,-41.7,18.6,0.8,-41.3,5.73,2.49,-36.6,23.4
2012-01-14 00:18:00,0.0,1.9418,0.0011,402.73,0.22,-1.0,0.0,138.23,23.78,24.57,36.24,0.04,-272.74,-272.74,-44,540,-939,18.5,0.7,-42.0,18.6,0.8,-41.3,5.73,2.51,-36.6,23.5
2012-01-14 00:19:00,0.0,1.9413,0.0009,402.57,0.19,-1.0,0.0,138.23,23.78,24.58,36.24,0.04,-272.73,-272.74,-44,540,-939,18.5,0.7,-42.0,18.6,0.7,-41.6,5.73,2.51,-36.6,23.5
2012-01-14 00:20:00,0.0,1.9411,0.0008,402.34,0.19,-1.0,0.0,138.23,23.78,24.57,36.25,0.04,-272.74,-272.74,-43,540,-939,18.5,0.7,-41.9,18.6,0.7,-41.6,5.73,2.49,-36.6,23.5
2012-01-14 00:21:00,0.0,1.9407,0.0010,402.34,0.17,-1.0,0.0,138.23,23.77,24.58,36.24,0.04,-272.74,-272.74,-43,540,-939,18.5,0.7,-41.9,18.6,0.7,-41.6,5.73,2.46,-36.7,23.5
2012-01-14 00:22:00,0.0,1.9412,0.0009,402.49,0.17,-1.0,0.0,138.23,23.77,24.57,36.24,0.04,-272.74,-272.74,-44,540,-939,18.5,0.7,-42.0,18.6,0.8,-41.3,5.73,2.44,-36.7,23.4
2012-01-14 00:23:00,0.0,1.9403,0.0010,402.43,0.20,-1.0,0.0,138.23,23.77,24.58,36.25,0.04,-272.74,-272.74,-44,540,-939,18.5,0.7,-41.7,18.6,0.8,-41.3,5.73,2.45,-36.7,23.5
2012-01-14 00:24:00,0.0,1.9401,0.0008,402.57,0.18,-1.0,0.0,138.23,23.76,24.58,36.24,0.04,-272.74,-272.74,-44,540,-939,18.5,0.7,-41.6,18.5,0.8,-41.1,5.73,2.48,-36.7,23.5
2012-01-14 00:25:00,0.0,1.9408,0.0009,402.90,0.24,-1.0,0.0,138.23,23.76,24.58,36.24,0.04,-272.73,-272.74,-44,540,-939,18.5,0.7,-41.6,18.5,0.8,-41.0,5.73,2.51,-36.7,23.4
2012-01-14 00:26:00,0.0,1.9415,0.0011,403.85,0.34,-1.0,0.0,138.23,23.76,24.58,36.25,0.04,-272.74,-272.74,-44,540,-939,18.5,0.7,-41.6,18.6,0.8,-41.0,5.73,2.52,-36.7,23.4
2012-01-14 00:27:00,0.0,1.9417,0.0009,403.57,0.34,-1.0,0.0,138.23,23.76,24.57,36.24,0.04,-272.74,-272.74,-44,540,-939,18.5,0.7,-41.4,18.5,0.8,-40.9,5.73,2.49,-36.7,23.4
2012-01-14 00:28:00,0.0,1.9415,0.0009,403.25,0.27,-1.0,0.0,138.23,23.76,24.58,36.24,0.04,-272.74,-272.74,-44,540,-939,18.5,0.8,-41.2,18.5,0.8,-40.8,5.73,2.45,-36.7,23.5
2012-01-14 00:29:00,0.0,1.9420,0.0009,403.89,0.23,-1.0,0.0,138.23,23.76,24.57,36.24,0.04,-272.74,-272.73,-44,540,-939,18.5,0.8,-41.1,18.5,0.8,-40.7,5.73,2.44,-36.7,23.5
2012-01-14 00:30:00,0.0,1.9411,0.0012,404.27,0.43,-1.0,0.0,138.23,23.76,24.57,36.24,0.04,-272.74,-272.74,-44,540,-939,18.5,0.8,-40.9,18.5,0.8,-40.6,5.73,2.45,-36.7,23.5
2012-01-14 00:31:00,0.0,1.9432,0.0010,405.21,0.32,-1.0,0.0,138.23,23.76,24.57,36.24,0.04,-272.74,-272.74,-44,540,-939,18.5,0.8,-40.9,18.5,0.8,-40.7,5.73,2.49,-36.7,23.5
2012-01-14 00:32:00,0.0,1.9409,0.0013,405.59,0.19,-1.0,0.0,138.23,23.76,24.58,36.24,0.04,-272.74,-272.74,-44,540,-939,18.5,0.8,-40.9,18.5,0.8,-40.6,5.73,2.51,-36.8,23.5
2012-01-14 00:33:00,0.0,1.9405,0.0010,405.69,0.26,-1.0,0.0,138.22,23.75,24.58,36.24,0.04,-272.74,-272.74,-44,540,-939,18.5,0.8,-40.9,18.5,0.8,-40.7,5.73,2.51,-36.7,23.5
2012-01-14 00:34:00,0.0,1.9388,0.0008,405.16,0.20,-1.0,0.0,138.23,23.75,24.57,36.24,0.04,-272.74,-272.74,-44,540,-939,18.5,0.8,-40.9,18.5,0.8,-40.6,5.73,2.47,-36.7,23.5
2012-01-14 00:35:00,0.0,1.9387,0.0013,405.35,0.22,-1.0,0.0,138.23,23.75,24.57,36.24,0.04,-272.74,-272.74,-44,540,-939,18.5,0.8,-40.9,18.5,0.8,-40.7,5.73,2.44,-36.7,23.5
2012-01-14 00:36:00,0.0,1.9372,0.0011,404.79,0.19,-1.0,0.0,138.23,23.74,24.58,36.24,0.04,-272.74,-272.74,-44,540,-939,18.5,0.8,-41.0,18.5,0.8,-40.6,5.73,2.44,-36.7,23.5
2012-01-14 00:37:00,0.0,1.9367,0.0007,404.51,0.23,-1.0,0.0,138.23,23.74,24.58,36.24,0.04,-272.74,-272.74,-44,540,-939,18.5,0.8,-40.9,18.5,0.8,-40.6,5.73,2.47,-36.7,23.5
2012-01-14 00:38:00,0.0,1.9375,0.0009,404.46,0.18,-1.0,0.0,138.23,23.74,24.57,36.25,0.04,-272.74,-272.74,-44,540,-939,18.5,0.8,-41.0,18.5,0.8,-40.6,5.73,2.51,-36.8,23.5
2012-01-14 00:39:00,0.0,1.9360,0.0009,404.04,0.21,-1.0,0.0,138.23,23.74,24.57,36.25,0.04,-272.73,-272.74,-44,540,-939,18.5,0.8,-40.9,18.5,0.8,-40.3,5.73,2.53,-36.8,23.5
2012-01-14 00:40:00,0.0,1.9366,0.0009,404.44,0.33,-1.0,0.0,138.23,23.74,24.57,36.25,0.04,-272.74,-272.74,-44,540,-939,18.5,0.8,-40.9,18.5,0.8,-40.4,5.73,2.49,-36.7,23.5
2012-01-14 00:41:00,0.0,1.9370,0.0008,404.75,0.16,-1.0,0.0,138.23,23.73,24.58,36.25,0.04,-272.74,-272.74,-44,540,-939,18.5,0.8,-40.7,18.5,0.8,-40.3,5.73,2.45,-36.8,23.5
2012-01-14 00:42:00,0.0,1.9357,0.0010,404.23,0.25,-1.0,0.0,138.23,23.73,24.58,36.24,0.04,-272.74,-272.74,-44,540,-939,18.5,0.8,-40.6,18.5,0.8,-40.4,5.73,2.44,-36.8,23.4
2012-01-14 00:43:00,0.0,1.9354,0.0007,404.08,0.19,-1.0,0.0,138.23,23.73,24.57,36.24,0.04,-272.74,-272.74,-44,540,-939,18.5,0.8,-40.6,18.5,0.9,-40.1,5.73,2.46,-36.8,23.4
2012-01-14 00:44:00,0.0,1.9350,0.0010,404.01,0.18,-1.0,0.0,138.23,23.73,24.57,36.24,0.04,-272.74,-272.74,-43,540,-939,18.5,0.8,-40.6,18.5,0.9,-40.1,5.73,2.50,-36.8,23.4
2012-01-14 00:45:00,0.0,1.9347,0.0009,404.00,0.22,-1.0,0.0,138.23,23.72,24.57,36.24,0.04,-272.74,-272.74,-44,540,-939,18.5,0.8,-40.4,18.5,0.9,-40.0,5.73,2.52,-36.8,23.4
2012-01-14 00:46:00,0.0,1.9342,0.0009,403.75,0.20,-1.0,0.0,138.23,23.72,24.58,36.25,0.04,-272.74,-272.74,-44,540,-939,18.5,0.8,-40.4,18.5,0.9,-39.9,5.73,2.50,-36.8,23.4
2012-01-14 00:47:00,0.0,1.9345,0.0008,403.92,0.17,-1.0,0.0,138.23,23.72,24.58,36.24,0.04,-272.74,-272.74,-44,540,-939,18.5,0.8,-40.3,18.5,0.9,-39.7,5.73,2.46,-36.8,23.5
2012-01-14 00:48:00,0.0,1.9342,0.0009,403.64,0.20,-1.0,0.0,138.23,23.72,24.57,36.24,0.04,-272.74,-272.74,-44,540,-939,18.5,0.9,-40.2,18.5,0.9,-39.8,5.73,2.43,-36.8,23.4
2012-01-14 00:49:00,0.0,1.9357,0.0011,403.86,0.20,-1.0,0.0,138.23,23.72,24.57,36.25,0.04,-272.73,-272.74,-44,540,-939,18.5,0.9,-39.9,18.5,0.9,-39.4,5.73,2.46,-36.8,23.4
2012-01-14 00:50:00,0.0,1.9348,0.0011,403.83,0.22,-1.0,0.0,138.23,23.72,24.58,36.25,0.04,-272.73,-272.74,-44,540,-939,18.5,0.9,-39.7,18.5,0.9,-39.3,5.73,2.50,-36.8,23.5
2012-01-14 00:51:00,0.0,1.9343,0.0009,403.74,0.22,-1.0,0.0,138.23,23.72,24.58,36.25,0.04,-272.74,-272.74,-43,540,-939,18.5,0.9,-39.7,18.5,1.0,-39.1,5.73,2.52,-36.8,23.4
2012-01-14 00:52:00,0.0,1.9343,0.0007,403.87,0.18,-1.0,0.0,138.23,23.71,24.58,36.24,0.04,-272.74,-272.74,-43,540,-939,18.5,0.9,-39.5,18.5,0.9,-39.2,5.73,2.51,-36.8,23.5
2012-01-14 00:53:00,0.0,1.9346,0.0009,403.98,0.19,-1.0,0.0,138.23,23.71,24.58,36.24,0.04,-272.74,-272.74,-44,540,-939,18.4,0.9,-39.4,18.5,1.0,-38.9,5.73,2.46,-36.8,23.4
2012-01-14 00:54:00,0.0,1.9346,0.0010,403.97,0.22,-1.0,0.0,138.23,23.71,24.57,36.25,0.04,-272.74,-272.74,-44,540,-939,18.4,0.9,-39.4,18.5,1.0,-38.9,5.73,2.43,-36.8,23.4
2012-01-14 00:55:00,0.0,1.9341,0.0010,404.14,0.15,-1.0,0.0,138.23,23.70,24.58,36.25,0.04,-272.74,-272.74,-44,540,-939,18.4,0.9,-39.4,18.5,1.0,-38.9,5.73,2.45,-36.8,23.4
2012-01-14 00:56:00,0.0,1.9346,0.0008,404.42,0.20,-1.0,0.0,138.23,23.70,24.57,36.24,0.04,-272.74,-272.74,-44,540,-939,18.4,1.0,-39.2,18.5,1.0,-38.9,5.73,2.49,-36.8,23.4
2012-01-14 00:57:00,0.0,1.9345,0.0010,404.53,0.25,-1.0,0.0,138.23,23.70,24.58,36.25,0.04,-272.74,-272.73,-44,540,-939,18.4,1.0,-39.2,18.5,1.0,-38.9,5.73,2.52,-36.8,23.5
2012-01-14 00:58:00,0.0,1.9350,0.0007,404.93,0.18,-1.0,0.0,138.23,23.69,24.57,36.24,0.04,-272.74,-272.74,-44,540,-939,18.4,1.0,-39.1,18.5,1.0,-38.7,5.73,2.50,-36.8,23.5
2012-01-14 00:59:00,0.0,1.9341,0.0010,404.94,0.22,-1.0,0.0,138.23,23.69,24.58,36.24,0.04,-272.73,-272.74,-44,540,-939,18.4,1.0,-39.2,18.5,1.0,-38.6,5.73,2.46,-36.8,23.5
2012-01-14 01:00:00,0.0,1.9336,0.0008,404.73,0.19,-1.0,0.0,138.23,23.69,24.58,36.25,0.04,-272.74,-272.74,-44,540,-939,18.4,1.0,-39.2,18.5,1.0,-38.6,5.73,2.43,-36.8,23.5
2012-01-14 01:01:00,0.0,1.9332,0.0008,404.65,0.16,-1.0,0.0,138.23,23.69,24.57,36.24,0.04,-272.74,-272.74,-43,540,-939,18.4,1.0,-39.2,18.5,1.0,-38.6,5.73,2.45,-36.8,23.5
2012-01-14 01:02:00,0.0,1.9340,0.0010,404.65,0.19,-1.0,0.0,138.23,23.68,24.58,36.25,0.04,-272.73,-272.74,-44,539,-939,18.4,1.0,-39.2,18.5,1.0,-38.6,5.73,2.49,-36.8,23.5
2012-01-14 01:03:00,0.0,1.9336,0.0008,404.62,0.21,-1.0,0.0,138.23,23.68,24.58,36.24,0.04,-272.74,-272.74,-44,540,-939,18.4,1.0,-39.1,18.5,1.0,-38.8,5.73,2.53,-36.8,23.4
2012-01-14 01:04:00,0.0,1.9346,0.0014,404.56,0.15,-1.0,0.0,138.23,23.68,24.57,36.25,0.04,-272.74,-272.74,-44,540,-939,18.4,0.9,-39.3,18.5,1.0,-38.9,5.73,2.50,-36.8,23.4
2012-01-14 01:05:00,0.0,1.9366,0.0010,404.52,0.19,-1.0,0.0,138.23,23.67,24.57,36.24,0.04,-272.74,-272.74,-44,540,-939,18.4,0.9,-39.5,18.5,1.0,-38.9,5.73,2.45,-36.8,23.4
2012-01-14 01:06:00,0.0,1.9367,0.0016,404.37,0.14,-1.0,0.0,138.23,23.67,24.57,36.24,0.04,-272.74,-272.74,-44,540,-939,18.4,0.9,-39.4,18.5,1.0,-39.1,5.73,2.44,-36.8,23.4
2012-01-14 01:07:00,0.0,1.9346,0.0010,404.48,0.17,-1.0,0.0,138.23,23.67,24.57,36.25,0.04,-272.74,-272.74,-44,540,-939,18.4,0.9,-39.4,18.5,1.0,-39.2,5.73,2.46,-36.8,23.4
2012-01-14 01:08:00,0.0,1.9349,0.0008,404.41,0.17,-1.0,0.0,138.23,23.67,24.57,36.25,0.04,-272.74,-272.74,-43,540,-939,18.4,0.9,-39.7,18.5,1.0,-39.2,5.73,2.51,-36.8,23.3
2012-01-14 01:09:00,0.0,1.9340,0.0014,404.37,0.18,-1.0,0.0,138.23,23.66,24.58,36.25,0.04,-272.74,-272.74,-43,540,-939,18.4,0.9,-39.8,18.5,1.0,-39.2,5.73,2.53,-36.8,23.3
2012-01-14 01:10:00,0.0,1.9355,0.0013,404.31,0.19,-1.0,0.0,138.23,23.66,24.57,36.25,0.04,-272.74,-272.74,-43,540,-939,18.4,0.9,-39.7,18.5,0.9,-39.3,5.73,2.48,-36.8,23.3
2012-01-14 01:11:00,0.0,1.9353,0.0015,404.16,0.18,-1.0,0.0,138.23,23.67,24.57,36.24,0.04,-272.74,-272.74,-44,540,-939,18.4,0.9,-39.7,18.4,0.9,-39.4,5.73,2.44,-36.8,23.3
2012-01-14 01:12:00,0.0,1.9387,0.0015,403.71,0.14,-1.0,0.0,138.23,23.67,24.58,36.25,0.04,-272.74,-272.74,-44,540,-939,18.4,0.9,-40.1,18.4,0.9,-39.4,5.73,2.44,-36.8,23.4
2012-01-14 01:13:00,0.0,1.9395,0.0012,403.76,0.22,-1.0,0.0,138.23,23.67,24.58,36.24,0.04,-272.74,-272.73,-44,540,-939,18.4,0.9,-40.0,18.5,0.9,-39.5,5.73,2.49,-36.8,23.4
2012-01-14 01:14:00,0.0,1.9398,0.0009,403.81,0.21,-1.0,0.0,138.23,23.67,24.57,36.25,0.04,-272.73,-272.74,-44,540,-939,18.4,0.9,-40.0,18.5,0.9,-39.7,5.73,2.53,-36.8,23.3
2012-01-14 01:15:00,0.0,1.9386,0.0009,403.88,0.20,-1.0,0.0,138.23,23.67,24.57,36.24,0.04,-272.74,-272.74,-44,540,-939,18.4,0.9,-40.1,18.4,0.9,-39.7,5.73,2.50,-36.8,23.3
2012-01-14 01:16:00,0.0,1.9404,0.0011,403.47,0.25,-1.0,0.0,138.23,23.67,24.58,36.25,0.04,-272.74,-272.74,-43,540,-939,18.4,0.8,-40.4,18.4,0.9,-39.7,5.73,2.45,-36.8,23.4
2012-01-14 01:17:00,0.0,1.9398,0.0010,403.85,0.36,-1.0,0.0,138.23,23.67,24.58,36.25,0.04,-272.74,-272.74,-43,540,-939,18.4,0.9,-40.3,18.4,0.9,-39.8,5.73,2.43,-36.8,23.4
2012-01-14 01:18:00,0.0,1.9400,0.0010,403.91,0.26,-1.0,0.0,138.23,23.67,24.57,36.24,0.04,-272.74,-272.73,-44,540,-939,18.4,0.8,-40.4,18.4,0.9,-39.7,5.73,2.48,-36.8,23.4
2012-01-14 01:19:00,0.0,1.9408,0.0014,403.75,0.55,-1.0,0.0,138.23,23.66,24.57,36.24,0.04,-272.74,-272.74,-44,540,-939,18.4,0.8,-40.4,18.4,0.9,-39.9,5.73,2.52,-36.8,23.4
2012-01-14 01:20:00,0.0,1.9409,0.0010,403.52,0.29,-1.0,0.0,138.23,23.66,24.58,36.25,0.04,-272.74,-272.74,-44,540,-939,18.4,0.8,-40.3,18.4,0.9,-40.1,5.73,2.51,-36.8,23.4
2012-01-14 01:21:00,0.0,1.9394,0.0012,404.58,0.27,-1.0,0.0,138.23,23.67,24.57,36.24,0.04,-272.74,-272.74,-44,540,-939,18.4,0.8,-40.4,18.4,0.9,-40.0,5.73,2.46,-36.8,23.3
2012-01-14 01:22:00,0.0,1.9384,0.0009,404.97,0.22,-1.0,0.0,138.23,23.66,24.58,36.24,0.04,-272.74,-272.74,-44,540,-939,18.4,0.8,-40.3,18.4,0.9,-40.1,5.73,2.43,-36.8,23.3
2012-01-14 01:23:00,0.0,1.9378,0.0009,405.17,0.21,-1.0,0.0,138.23,23.66,24.57,36.24,0.04,-272.74,-272.73,-43,540,-939,18.4,0.8,-40.3,18.4,0.9,-40.0,5.73,2.46,-36.8,23.4
2012-01-14 01:24:00,0.0,1.9371,0.0013,404.88,0.28,-1.0,0.0,138.23,23.65,24.57,36.25,0.04,-272.74,-272.73,-43,540,-939,18.4,0.8,-40.3,18.4,0.9,-39.8,5.73,2.52,-36.8,23.4
2012-01-14 01:25:00,0.0,1.9350,0.0012,404.93,0.25,-1.0,0.0,138.23,23.65,24.58,36.25,0.04,-272.74,-272.74,-43,540,-939,18.4,0.9,-40.0,18.4,0.9,-39.7,5.73,2.52,-36.8,23.4
2012-01-14 01:26:00,0.0,1.9362,0.0008,405.97,0.21,-1.0,0.0,138.23,23.64,24.58,36.24,0.04,-272.74,-272.74,-43,540,-939,18.3,0.9,-40.0,18.4,0.9,-39.5,5.73,2.46,-36.8,23.4
2012-01-14 01:27:00,0.0,1.9337,0.0012,405.39,0.42,-1.0,0.0,138.23,23.64,24.57,36.24,0.04,-272.74,-272.74,-44,540,-939,18.4,0.9,-39.7,18.4,0.9,-39.5,5.73,2.43,-36.8,23.4
2012-01-14 01:28:00,0.0,1.9332,0.0017,404.29,0.24,-1.0,0.0,138.23,23.64,24.58,36.24,0.04,-272.74,-272.74,-44,540,-939,18.3,0.9,-39.8,18.4,1.0,-39.2,5.73,2.45,-36.8,23.4
2012-01-14 01:29:00,0.0,1.9326,0.0019,404.05,0.17,-1.0,0.0,138.23,23.63,24.57,36.25,0.04,-272.74,-272.74,-44,539,-939,18.3,0.9,-39.7,18.4,0.9,-39.3,5.73,2.51,-36.8,23.4
2012-01-14 01:30:00,0.0,1.9342,0.0016,404.16,0.18,-1.0,0.0,138.23,23.63,24.57,36.25,0.04,-272.74,-272.74,-43,540,-939,18.3,0.9,-39.5,18.4,1.0,-39.2,5.73,2.52,-36.7,23.4
2012-01-14 01:31:00,0.0,1.9297,0.0012,403.88,0.21,-1.0,0.0,138.23,23.63,24.58,36.25,0.04,-272.74,-272.74,-43,540,-939,18.3,0.9,-39.5,18.4,1.0,-39.0,5.73,2.47,-36.8,23.4
2012-01-14 01:32:00,0.0,1.9284,0.0011,403.94,0.15,-1.0,0.0,138.23,23.63,24.57,36.24,0.04,-272.74,-272.74,-43,540,-939,18.3,0.9,-39.5,18.4,1.0,-39.0,5.73,2.43,-36.8,23.3
2012-01-14 01:33:00,0.0,1.9285,0.0009,403.97,0.18,-1.0,0.0,138.23,23.63,24.58,36.24,0.04,-272.74,-272.74,-44,540,-939,18.3,1.0,-39.2,18.4,1.0,-38.9,5.73,2.46,-36.8,23.3
2012-01-14 01:34:00,0.0,1.9292,0.0008,403.99,0.15,-1.0,0.0,138.23,23.63,24.58,36.25,0.04,-272.74,-272.74,-44,540,-939,18.3,1.0,-39.2,18.4,1.0,-38.7,5.73,2.52,-36.7,23.3
2012-01-14 01:35:00,0.0,1.9291,0.0007,404.13,0.22,-1.0,0.0,138.23,23.63,24.57,36.24,0.04,-272.74,-272.74,-44,539,-939,18.3,1.0,-39.0,18.4,1.0,-38.5,5.73,2.52,-36.7,23.3
2012-01-14 01:36:00,0.0,1.9291,0.0009,404.43,0.20,-1.0,0.0,138.23,23.63,24.58,36.24,0.04,-272.74,-272.73,-44,539,-939,18.3,1.0,-38.9,18.4,1.0,-38.4,5.73,2.47,-36.7,23.4
2012-01-14 01:37:00,0.0,1.9302,0.0010,404.10,0.20,-1.0,0.0,138.23,23.62,24.57,36.24,0.04,-272.74,-272.74,-43,540,-939,18.3,1.0,-38.9,18.4,1.0,-38.4,5.73,2.42,-36.7,23.4
2012-01-14 01:38:00,0.0,1.9301,0.0008,404.51,0.26,-1.0,0.0,138.23,23.62,24.57,36.25,0.04,-272.74,-272.74,-43,540,-939,18.3,1.0,-39.0,18.4,1.0,-38.4,5.73,2.46,-36.7,23.4
2012-01-14 01:39:00,0.0,1.9301,0.0010,404.59,0.16,-1.0,0.0,138.23,23.62,24.57,36.25,0.04,-272.74,-272.74,-43,540,-938,18.3,1.0,-38.9,18.4,1.0,-38.4,5.73,2.52,-36.7,23.4
2012-01-14 01:40:00,0.0,1.9307,0.0008,404.52,0.17,-1.0,0.0,138.23,23.61,24.58,36.25,0.04,-272.74,-272.74,-44,540,-939,18.3,1.0,-38.9,18.4,1.0,-38.4,5.73,2.52,-36.7,23.3
2012-01-14 01:41:00,0.0,1.9303,0.0010,404.76,0.18,-1.0,0.0,138.23,23.61,24.58,36.25,0.04,-272.74,-272.74,-44,540,-939,18.3,1.0,-39.0,18.4,1.0,-38.4,5.73,2.46,-36.7,23.4
2012-01-14 01:42:00,0.0,1.9307,0.0010,404.68,0.18,-1.0,0.0,138.23,23.61,24.57,36.25,0.04,-272.74,-272.74,-44,540,-939,18.3,1.0,-38.9,18.4,1.0,-38.5,5.73,2.43,-36.7,23.4
2012-01-14 01:43:00,0.0,1.9308,0.0009,404.78,0.17,-1.0,0.0,138.23,23.61,24.57,36.25,0.04,-272.74,-272.74,-43,540,-939,18.3,1.0,-38.9,18.4,1.0,-38.4,5.73,2.48,-36.7,23.4
2012-01-14 01:44:00,0.0,1.9315,0.0009,404.61,0.19,-1.0,0.0,138.23,23.60,24.57,36.24,0.04,-272.74,-272.74,-43,540,-938,18.3,1.0,-38.8,18.4,1.0,-38.4,5.73,2.53,-36.7,23.4
2012-01-14 01:45:00,0.0,1.9316,0.0009,404.50,0.20,-1.0,0.0,138.23,23.60,24.58,36.25,0.04,-272.74,-272.74,-43,540,-939,18.3,1.0,-38.7,18.4,1.0,-38.4,5.73,2.51,-36.7,23.4
2012-01-14 01:46:00,0.0,1.9316,0.0012,404.66,0.25,-1.0,0.0,138.23,23.60,24.57,36.25,0.04,-272.74,-272.74,-43,539,-939,18.3,1.0,-38.7,18.4,1.1,-38.2,5.73,2.45,-36.7,23.3
2012-01-14 01:47:00,0.0,1.9309,0.0008,404.83,0.21,-1.0,0.0,138.23,23.60,24.58,36.24,0.04,-272.73,-272.74,-44,539,-939,18.3,1.0,-38.7,18.4,1.1,-38.2,5.73,2.43,-36.7,23.3
2012-01-14 01:48:00,0.0,1.9312,0.0010,405.15,0.35,-1.0,0.0,138.23,23.60,24.58,36.25,0.04,-272.74,-272.74,-44,540,-939,18.3,1.0,-38.7,18.4,1.1,-38.2,5.73,2.48,-36.7,23.4
2012-01-14 01:49:00,0.0,1.9325,0.0011,405.96,0.25,-1.0,0.0,138.23,23.59,24.57,36.24,0.04,-272.74,-272.74,-43,539,-939,18.3,1.0,-38.7,18.4,1.1,-38.2,5.73,2.53,-36.7,23.4
2012-01-14 01:50:00,0.0,1.9304,0.0009,405.23,0.19,-1.0,0.0,138.23,23.59,24.58,36.24,0.04,-272.73,-272.74,-43,540,-939,18.3,1.0,-38.7,18.4,1.1,-38.2,5.73,2.49,-36.7,23.4
2012-01-14 01:51:00,0.0,1.9286,0.0011,404.89,0.28,-1.0,0.0,138.23,23.59,24.58,36.24,0.04,-272.74,-272.74,-43,539,-939,18.3,1.0,-38.6,18.3,1.1,-38.2,5.73,2.43,-36.6,23.4
2012-01-14 01:52:00,0.0,1.9296,0.0010,404.93,0.15,-1.0,0.0,138.23,23.59,24.58,36.24,0.04,-272.74,-272.74,-43,539,-939,18.3,1.0,-38.4,18.3,1.1,-38.2,5.73,2.44,-36.6,23.3
2012-01-14 01:53:00,0.0,1.9289,0.0009,404.55,0.22,-1.0,0.0,138.23,23.59,24.58,36.25,0.04,-272.73,-272.74,-44,540,-939,18.3,1.0,-38.5,18.4,1.1,-38.1,5.73,2.51,-36.7,23.3
2012-01-14 01:54:00,0.0,1.9299,0.0008,404.63,0.22,-1.0,0.0,138.23,23.59,24.58,36.25,0.04,-272.74,-272.74,-44,540,-939,18.3,1.0,-38.7,18.4,1.1,-38.2,5.73,2.53,-36.6,23.3
2012-01-14 01:55:00,0.0,1.9295,0.0012,404.45,0.19,-1.0,0.0,138.23,23.59,24.57,36.25,0.04,-272.74,-272.74,-44,539,-939,18.3,1.0,-38.7,18.3,1.1,-38.2,5.73,2.46,-36.6,23.3
2012-01-14 01:56:00,0.0,1.9285,0.0009,404.43,0.23,-1.0,0.0,138.23,23.58,24.57,36.25,0.04,-272.73,-272.74,-43,540,-938,18.3,1.0,-38.7,18.3,1.1,-38.2,5.73,2.42,-36.6,23.3
2012-01-14 01:57:00,0.0,1.9296,0.0017,404.22,0.23,-1.0,0.0,138.23,23.58,24.58,36.24,0.04,-272.74,-272.74,-43,540,-939,18.3,1.0,-38.7,18.3,1.1,-38.2,5.73,2.47,-36.6,23.3
2012-01-14 01:58:00,0.0,1.9358,0.0023,403.91,0.29,-1.0,0.0,138.23,23.58,24.57,36.25,0.04,-272.74,-272.74,-43,539,-938,18.3,1.0,-38.7,18.3,1.1,-38.2,5.73,2.54,-36.6,23.3
2012-01-14 01:59:00,0.0,1.9366,0.0013,403.85,0.25,-1.0,0.0,138.23,23.58,24.58,36.25,0.04,-272.74,-272.74,-43,539,-939,18.3,1.0,-38.7,18.3,1.1,-38.3,5.73,2.51,-36.6,23.3
2012-01-14 02:00:00,1.0,1.8984,0.0255,388.32,10.98,-1.0,0.0,138.23,23.57,24.58,36.25,0.04,-272.73,-272.74,-43,550,-939,18.3,1.0,-39.0,18.3,1.0,-38.5,5.73,2.46,-36.6,23.3
2012-01-14 02:01:00,1.0,1.8694,0.0009,375.75,0.17,-1.0,0.0,138.23,23.57,24.58,36.26,0.04,-272.74,-272.74,-43,547,-939,18.3,1.0,-39.3,18.3,1.0,-38.9,5.73,2.43,-36.6,23.4
2012-01-14 02:02:00,1.0,1.8697,0.0009,375.72,0.20,-1.0,0.0,138.23,23.57,24.58,36.26,0.04,-272.74,-272.74,-43,548,-939,18.3,0.9,-39.6,18.3,1.0,-39.1,5.73,2.50,-36.6,23.4
2012-01-14 02:03:00,1.0,1.8696,0.0009,375.68,0.20,-1.0,0.0,138.23,23.57,24.58,36.26,0.04,-272.74,-272.74,-43,547,-939,18.3,0.9,-39.8,18.3,0.9,-39.3,5.73,2.53,-36.6,23.3
2012-01-14 02:04:00,1.0,1.8700,0.0009,375.74,0.22,-1.0,0.0,138.23,23.57,24.58,36.26,0.04,-272.74,-272.74,-43,547,-939,18.3,0.9,-40.1,18.3,0.9,-39.6,5.73,2.47,-36.6,23.3
2012-01-14 02:05:00,1.0,1.8697,0.0008,375.69,0.17,-1.0,0.0,138.23,23.57,24.58,36.26,0.04,-272.74,-272.74,-43,548,-939,18.3,0.8,-40.4,18.3,0.9,-39.8,5.73,2.42,-36.6,23.3
2012-01-14 02:06:00,1.0,1.8699,0.0009,375.67,0.18,-1.0,0.0,138.23,23.57,24.58,36.26,0.04,-272.74,-272.74,-43,547,-939,18.3,0.8,-40.6,18.3,0.9,-40.0,5.73,2.47,-36.6,23.4
2012-01-14 02:07:00,4.0,1.8399,0.0191,383.39,4.93,-1.0,0.0,138.23,23.56,24.58,36.26,0.04,-272.74,-272.74,-43,517,-939,18.3,0.8,-40.7,18.3,0.9,-40.1,5.73,2.49,-36.6,23.4
2012-01-14 02:08:00,4.0,1.8199,0.0010,388.78,0.19,-1.0,0.0,138.23,23.56,24.57,36.26,0.04,-272.74,-272.74,-43,512,-939,18.3,0.8,-40.7,18.4,0.9,-40.3,5.73,2.49,-36.5,23.3
2012-01-14 02:09:00,4.0,1.8197,0.0009,388.95,0.16,-1.0,0.0,138.23,23.56,24.58,36.26,0.04,-272.74,-272.74,-43,511,-939,18.3,0.8,-40.9,18.4,0.8,-40.4,5.73,2.42,-36.5,23.3
2012-01-14 02:10:00,4.0,1.8196,0.0009,389.00,0.19,-1.0,0.0,138.23,23.56,24.58,36.25,0.04,-272.73,-272.74,-43,510,-939,18.3,0.8,-41.0,18.4,0.8,-40.4,5.73,2.45,-36.5,23.3
2012-01-14 02:11:00,4.0,1.8194,0.0008,388.95,0.16,-1.0,0.0,138.23,23.56,24.58,36.25,0.04,-272.74,-272.74,-43,510,-939,18.3,0.8,-41.0,18.4,0.8,-40.4,5.73,2.53,-36.5,23.3
2012-01-14 02:12:00,4.0,1.8195,0.0007,389.00,0.15,-1.0,0.0,138.23,23.55,24.57,36.25,0.04,-272.74,-272.74,-43,509,-939,18.3,0.8,-41.1,18.4,0.8,-40.4,5.73,2.50,-36.5,23.3
2012-01-14 02:13:00,4.0,1.8194,0.0009,388.93,0.16,-1.0,0.0,138.23,23.55,24.57,36.26,0.04,-272.74,-272.74,-43,509,-939,18.3,0.8,-41.1,18.4,0.8,-40.4,5.73,2.42,-36.5,23.3
2012-01-14 02:14:00,5.0,1.7174,0.0642,365.51,14.67,-1.0,0.0,138.23,23.55,24.58,36.26,0.04,-272.74,-272.74,-43,741,-939,18.3,0.8,-41.0,18.4,0.8,-40.4,5.73,2.48,-36.5,23.3
2012-01-14 02:15:00,5.0,1.6499,0.0010,350.12,0.19,-1.0,0.0,138.23,23.55,24.58,36.27,0.04,-272.74,-272.74,-43,738,-939,18.3,0.8,-41.0,18.4,0.8,-40.6,5.73,2.53,-36.6,23.3
2012-01-14 02:16:00,5.0,1.6493,0.0009,350.07,0.15,-1.0,0.0,138.23,23.54,24.58,36.27,0.04,-272.74,-272.74,-43,743,-939,18.4,0.8,-41.0,18.4,0.8,-40.7,5.73,2.49,-36.6,23.3
2012-01-14 02:17:00,5.0,1.6494,0.0008,350.03,0.16,-1.0,0.0,138.23,23.54,24.58,36.28,0.04,-272.74,-272.74,-43,749,-939,18.4,0.8,-41.0,18.4,0.8,-40.7,5.73,2.43,-36.6,23.3
2012-01-14 02:18:00,5.0,1.6498,0.0009,350.02,0.16,-1.0,0.0,138.23,23.54,24.58,36.28,0.04,-272.74,-272.74,-43,751,-939,18.4,0.8,-41.0,18.4,0.8,-40.7,5.73,2.44,-36.6,23.3